TimePDT,TemperatureF,Dew PointF,Humidity,Sea Level PressureIn,VisibilityMPH,Wind Direction,Wind SpeedMPH,Gust SpeedMPH,PrecipitationIn,Events,Conditions,WindDirDegrees,DateUTC
12:53 AM,35.1,-0.9,22,30.01,10.0,North,15.0,-,N/A,,Clear,350,2013-05-01 07:53:00
1:51 AM,33.8,-0.4,23,30.17,10.0,North,11.5,-,N/A,,Clear,350,2013-05-01 08:51:00
1:53 AM,32.0,-0.9,24,30.03,10.0,North,11.5,-,N/A,,Clear,360,2013-05-01 08:53:00
2:53 AM,28.9,-2.9,25,30.05,10.0,NW,8.1,-,N/A,,Clear,320,2013-05-01 09:53:00
3:53 AM,25.0,-4.0,28,30.10,10.0,WNW,8.1,-,N/A,,Clear,290,2013-05-01 10:53:00
5:53 AM,23.0,-2.0,34,30.18,10.0,North,6.9,-,N/A,,Clear,10,2013-05-01 12:53:00
6:53 AM,28.9,3.9,35,30.22,10.0,NNE,13.8,-,N/A,,Clear,20,2013-05-01 13:53:00
7:53 AM,33.1,8.1,35,30.24,10.0,North,15.0,21.9,N/A,,Clear,10,2013-05-01 14:53:00
8:53 AM,37.0,7.0,29,30.24,10.0,North,17.3,24.2,N/A,,Clear,10,2013-05-01 15:53:00
9:53 AM,39.9,5.0,23,30.25,10.0,North,18.4,-,N/A,,Clear,350,2013-05-01 16:53:00
10:53 AM,44.1,3.9,19,30.26,10.0,North,17.3,24.2,N/A,,Clear,360,2013-05-01 17:53:00
11:53 AM,46.9,-2.9,13,30.28,10.0,NNW,18.4,25.3,N/A,,Clear,340,2013-05-01 18:53:00
12:53 PM,48.9,-9.9,8,30.28,10.0,North,18.4,29.9,N/A,,Clear,360,2013-05-01 19:53:00
1:53 PM,51.1,-11.9,7,30.29,10.0,North,26.5,36.8,N/A,,Clear,350,2013-05-01 20:53:00
2:53 PM,51.1,-8.0,9,30.31,10.0,North,23.0,32.2,N/A,,Clear,10,2013-05-01 21:53:00
3:53 PM,51.1,-7.1,9,30.34,10.0,North,13.8,31.1,N/A,,Clear,360,2013-05-01 22:53:00
4:53 PM,52.0,-6.0,9,30.35,10.0,NNW,16.1,29.9,N/A,,Clear,340,2013-05-01 23:53:00
5:53 PM,50.0,-4.0,11,30.37,10.0,North,18.4,27.6,N/A,,Clear,350,2013-05-02 00:53:00
6:53 PM,46.9,-2.9,13,30.37,10.0,North,13.8,23.0,N/A,,Clear,350,2013-05-02 01:53:00
7:53 PM,42.1,3.0,20,30.40,10.0,North,11.5,-,N/A,,Clear,350,2013-05-02 02:53:00
8:53 PM,37.0,3.9,25,30.45,10.0,NNW,5.8,-,N/A,,Clear,340,2013-05-02 03:53:00
9:53 PM,37.0,5.0,26,30.47,10.0,NNW,11.5,18.4,N/A,,Clear,330,2013-05-02 04:53:00
10:53 PM,35.1,5.0,28,30.48,10.0,North,10.4,-,N/A,,Clear,350,2013-05-02 05:53:00
11:53 PM,33.1,6.1,32,30.50,10.0,NNW,10.4,-,N/A,,Clear,340,2013-05-02 06:53:00